Back to catalog

THORAD AGENA D DEB

AliveSSO
NORAD 4639·DEBRIS·🇺🇸 United States

Launched Apr 8, 1970 from Vandenberg Space Force Base

Loading…

Next Passes (next 24 hours)

TLE

FreshSource: Space-Track

Epoch: Sep 14, 2026, 03:45 UTC

1 04639U 70025X   26257.15678686  .00000099  00000-0  27917-3 0  9992
2 04639  99.8733 320.9774 0113246 221.4202 164.4993 13.33143233741133

Track THORAD AGENA D DEB in real time with AllMySat

Download on the App Store